Waarnemingen

Advertentie
Mijn weer
Barth, Duitsland (10180): temperatuur & dauwpunt: 16.01.2018 17:00:00 - 22.01.2018 17:00:00 (CET)Barth, Duitsland (10180): temperatuur 5cm & temperatuur -5cm: 16.01.2018 17:00:00 - 22.01.2018 17:00:00 (CET)Barth, Duitsland (10180): temperatuur -20cm & temperatuur -100cm: 16.01.2018 17:00:00 - 22.01.2018 17:00:00 (CET)Barth, Duitsland (10180): windsnelheid & windstoten: 16.01.2018 17:00:00 - 22.01.2018 17:00:00 (CET)Barth, Duitsland (10180): windrichting: 16.01.2018 17:00:00 - 22.01.2018 17:00:00 (CET)Barth, Duitsland (10180): luchtdruk: 16.01.2018 17:00:00 - 22.01.2018 17:00:00 (CET)Barth, Duitsland (10180): zicht: 16.01.2018 17:00:00 - 22.01.2018 17:00:00 (CET)Barth, Duitsland (10180): Zonneschijnduur: 16.01.2018 17:00:00 - 22.01.2018 17:00:00 (CET)Barth, Duitsland (10180): neerslag: 16.01.2018 17:00:00 - 22.01.2018 17:00:00 (CET)
Datum & Tijd tt [°C] td [°C] tt 5cm [°C] tt -5cm [°C] tt -20cm [°C] tt -100cm [°C] ff [km/u] ff [kn] fx [km/u] fx [kn] dd ppp [hPa] vv [km] sd [min] rr [mm]
22.01.2018 17:00:00 0,1 -2,4 -0,1 0,3 1,2 4,9 17 9 31 17 ZO 1010,3 2,6 0 0,0
22.01.2018 16:00:00 0,3 -2,6 0,1 0,5 1,2 4,9 19 11 30 16 ZO 1010,0 7 0 0,0
22.01.2018 15:00:00 0,4 -2,1 0,3 0,6 1,2 4,9 15 8 26 14 OZO 1009,8 7 0 0,0
22.01.2018 14:00:00 0,5 -2,3 0,7 0,5 1,1 4,9 17 9 28 15 ZO 1009,7 6 0 0,0
22.01.2018 13:00:00 0,4 -2,3 0,5 0,2 1,1 4,9 16 9 31 17 ZO 1010,2 8 0 0,0
22.01.2018 12:00:00 0,1 -2,2 0,1 0,2 1,2 4,9 19 11 29 16 ZO 1010,9 7 0 0,0
22.01.2018 11:00:00 0,1 -1,8 -0,1 0,2 1,2 4,9 17 9 30 16 ZO 1011,6 8 0 0,0
22.01.2018 10:00:00 -0,2 -2,0 -0,2 0,2 1,2 4,9 19 10 32 17 ZZO 1011,9 8 0 0,0
22.01.2018 09:00:00 -0,4 -2,2 -0,6 0,2 1,2 4,9 22 12 32 17 ZZO 1012,0 7 0 0,0
22.01.2018 08:00:00 -0,3 -2,0 -0,5 0,2 1,2 4,9 20 11 31 17 ZZO 1012,2 7 0 0,0
22.01.2018 07:00:00 -0,5 -2,0 -0,6 0,2 1,3 4,9 18 10 29 16 ZZO 1012,6 6 0 0,0
22.01.2018 06:00:00 -0,8 -2,2 -0,7 0,2 1,3 4,9 18 10 25 14 ZZO 1013,1 4,9 0 0,0
22.01.2018 05:00:00 -1,0 -2,2 -0,9 0,2 1,3 4,9 16 9 33 18 ZZO 1013,9 6 0 0,0
22.01.2018 04:00:00 -1,1 -2,2 -1,0 0,2 1,4 4,9 21 12 35 19 ZZO 1014,4 7 0 0,0
22.01.2018 03:00:00 -1,2 -2,1 -1,1 0,2 1,4 4,9 18 10 27 14 Z 1015,1 8 0 0,0
22.01.2018 02:00:00 -1,4 -1,6 -1,2 0,3 1,5 4,9 17 9 27 15 Z 1015,9 1,9 0 0,0
22.01.2018 01:00:00 -1,6 -1,8 -1,3 0,3 1,5 4,9 15 8 23 12 Z 1016,5 1,2 0 0,0
22.01.2018 00:00:00 -1,5 -1,6 -1,2 0,3 1,6 4,9 16 9 23 12 Z 1017,0 0,9 0 0,0
21.01.2018 23:00:00 -1,1 -1,2 -0,8 0,4 1,7 4,9 12 6 19 10 Z 1017,2 0,3 0 0,0
21.01.2018 22:00:00 -1,2 -1,3 -0,9 0,5 1,7 4,9 15 8 21 11 Z 1017,5 0,2 0 0,0
21.01.2018 21:00:00 -1,2 -1,2 -0,9 0,8 1,8 4,9 9 5 16 9 Z 1017,4 0,2 0 0,0
21.01.2018 20:00:00 -0,7 -0,7 -0,6 1,0 1,8 4,9 10 5 15 8 Z 1017,3 0,1 0 0,0
21.01.2018 19:00:00 -0,7 -0,7 -0,5 1,2 1,9 4,9 8 5 16 9 ZZW 1017,2 0,1 0 0,0
21.01.2018 18:00:00 0,1 0,0 0,3 1,5 1,9 4,9 9 5 14 7 ZW 1017,4 0,2 0 0,0
21.01.2018 17:00:00 0,3 0,3 0,4 1,8 1,8 4,9 8 5 13 7 Z 1016,9 0,3 0 0,0
21.01.2018 16:00:00 0,2 0,2 0,6 2,3 1,7 4,9 7 4 11 6 ZO 1016,5 0,1 0 0,0
21.01.2018 15:00:00 0,6 0,6 1,2 2,7 1,6 4,9 2 1 8 4 ZO 1016,1 0,4 0 0,0
21.01.2018 14:00:00 1,2 1,0 2,1 2,5 1,4 4,9 3 1 9 5 OZO 1015,1 1,1 3 0,0
21.01.2018 13:00:00 1,1 1,0 1,9 1,9 1,2 4,9 6 3 10 5 WZW 1014,6 0,3 0 0,0
21.01.2018 12:00:00 0,0 0,0 0,7 0,8 1,2 4,9 3 2 5 3 WZW 1014,0 0,3 0 0,0
21.01.2018 11:00:00 -0,2 -0,4 0,0 0,3 1,2 4,9 4 2 5 3 ZZO 1013,5 0,1 0 0,0
21.01.2018 10:00:00 -0,6 -0,6 -0,6 0,2 1,3 4,9 2 1 6 3 NW 1012,5 0,8 0 0,0
21.01.2018 09:00:00 -1,5 -2,0 -2,0 0,2 1,3 4,9 2 1 4 2 W 1011,3 0,2 0 0,0
21.01.2018 08:00:00 -1,1 -1,2 -2,0 0,2 1,3 4,9 3 1 5 3 NO 1010,4 1,2 0 0,0
21.01.2018 07:00:00 -0,3 -0,3 -1,7 0,2 1,4 4,9 3 2 11 6 Z 1009,3 1,6 0 0,0
21.01.2018 06:00:00 -0,2 -0,5 -1,1 0,2 1,4 4,9 6 3 10 5 O 1008,7 1,5 0 0,0
21.01.2018 05:00:00 -0,8 -1,1 -1,5 0,3 1,4 4,9 3 2 7 4 NO 1007,8 1,6 0 0,0
21.01.2018 04:00:00 -0,9 -1,1 -1,6 0,3 1,5 4,9 5 3 7 4 ONO 1007,0 1,3 0 0,0
21.01.2018 03:00:00 -0,8 -1,0 -1,8 0,2 1,6 4,9 3 2 5 3 O 1006,3 1,4 0 0,0
21.01.2018 02:00:00 -0,1 -0,2 -1,4 0,3 1,7 4,9 2 1 12 7 NO 1005,5 1,8 0 0,0
21.01.2018 01:00:00 -0,2 -0,6 -0,8 0,6 1,7 4,9 6 3 12 6 O 1004,8 1,8 0 0,0
21.01.2018 00:00:00 0,4 -0,1 -0,2 0,8 1,8 4,9 7 4 11 6 ZO 1004,6 2,3 0 0,0
20.01.2018 23:00:00 0,5 -0,1 0,0 1,1 1,8 4,9 7 4 11 6 ZO 1004,3 2,4 0 0,0
20.01.2018 22:00:00 0,7 0,4 0,5 1,3 1,8 4,9 6 3 13 7 ZO 1004,0 1,9 0 0,0
20.01.2018 21:00:00 0,9 0,5 0,8 1,4 1,9 4,9 7 4 11 6 OZO 1003,9 1,8 0 0,0
20.01.2018 20:00:00 1,0 0,6 0,9 1,4 1,9 4,9 4 2 8 4 ZZO 1003,7 1,5 0 0,0
20.01.2018 19:00:00 1,2 0,3 0,9 1,5 1,9 4,9 6 4 10 5 ZZO 1003,8 1,7 0 0,0
20.01.2018 18:00:00 1,4 0,1 1,2 1,5 1,9 4,9 8 5 12 6 ZZO 1003,6 5 0 0,0
20.01.2018 17:00:00 1,6 0,1 1,3 1,7 1,9 4,9 8 5 13 7 Z 1003,6 5 0 0,0
20.01.2018 16:00:00 1,7 0,2 1,4 1,9 1,9 4,9 6 3 13 7 Z 1003,8 6 0 0,0
20.01.2018 15:00:00 1,8 0,2 1,8 2,1 1,8 4,9 9 5 16 9 Z 1003,9 7 0 0,0
20.01.2018 14:00:00 2,0 0,1 1,9 2,2 1,7 4,9 11 6 20 11 ZZW 1004,0 7 0 0,0
20.01.2018 13:00:00 1,8 -0,1 1,9 2,0 1,6 4,9 13 7 23 13 ZZW 1004,5 7 0 0,0
20.01.2018 12:00:00 1,8 -0,1 1,9 1,8 1,6 4,9 14 7 23 12 ZW 1005,2 7 0 0,0
20.01.2018 11:00:00 1,7 0,5 1,9 1,6 1,5 4,9 12 7 17 9 ZZW 1005,5 6 0 0,0
20.01.2018 10:00:00 1,5 0,2 1,5 1,2 1,5 4,9 11 6 18 10 ZZW 1005,4 6 0 0,0
20.01.2018 09:00:00 1,2 -0,1 0,8 1,0 1,5 4,9 10 5 16 9 ZZW 1005,4 8 0 0,0
20.01.2018 08:00:00 1,2 -0,1 0,7 1,0 1,5 4,9 10 6 26 14 ZZW 1005,3 6 0 0,0
20.01.2018 07:00:00 1,3 0,0 0,8 1,1 1,5 4,9 10 5 25 14 ZW 1005,4 5 0 0,0
20.01.2018 06:00:00 1,5 -0,2 0,8 1,1 1,5 4,9 19 10 29 16 ZW 1005,3 7 0 0,0
20.01.2018 05:00:00 1,7 0,4 1,2 1,1 1,5 4,9 15 8 24 13 ZW 1005,2 5 0 0,1
20.01.2018 04:00:00 1,7 0,8 1,3 1,1 1,5 4,9 10 6 19 10 ZZW 1005,6 2,7 0 0,0
20.01.2018 03:00:00 1,6 0,7 0,9 1,1 1,5 4,9 14 7 21 12 ZW 1005,7 4,2 0 0,0
20.01.2018 02:00:00 1,8 0,9 1,4 1,2 1,5 4,9 13 7 19 10 ZZW 1005,8 4,5 0 0,0
20.01.2018 01:00:00 1,9 0,9 1,4 1,2 1,4 4,9 11 6 18 10 ZZW 1005,8 4,6 0 0,0
20.01.2018 00:00:00 1,6 0,9 1,2 1,1 1,4 4,9 7 4 14 8 ZZW 1005,8 3,3 0 0,0
19.01.2018 23:00:00 1,2 0,6 0,9 1,0 1,4 4,9 10 5 19 10 ZZW 1005,8 3,6 0 0,0
19.01.2018 22:00:00 1,4 0,7 1,1 1,1 1,4 4,9 13 7 19 10 ZZW 1005,8 4,1 0 0,0
19.01.2018 21:00:00 1,5 0,5 1,0 1,1 1,4 4,9 11 6 18 10 ZZW 1005,8 4,7 0 0,0
19.01.2018 20:00:00 1,5 0,7 1,1 1,2 1,4 4,9 10 5 23 12 ZZW 1005,8 4,0 0 0,0
19.01.2018 19:00:00 1,4 0,8 1,1 1,2 1,4 4,9 11 6 19 10 ZZW 1005,7 3,0 0 0,0
19.01.2018 18:00:00 1,5 0,9 1,1 1,3 1,3 4,9 13 7 19 10 ZZW 1005,4 3,3 0 0,0
19.01.2018 17:00:00 1,6 0,9 1,3 1,4 1,3 4,9 11 6 16 9 ZZW 1005,4 3,7 0 0,1
19.01.2018 16:00:00 1,3 0,8 1,2 1,5 1,2 4,9 11 6 17 9 ZW 1005,2 3,8 0 0,0
19.01.2018 15:00:00 2,1 1,3 2,0 1,7 1,1 4,9 11 6 16 9 ZZW 1004,7 8 0 0,1
19.01.2018 14:00:00 2,4 1,2 2,3 1,4 1,0 4,9 10 6 16 9 ZW 1004,4 10 0 0,0
19.01.2018 13:00:00 1,8 0,9 1,8 0,8 0,9 4,9 11 6 18 10 ZW 1004,1 6 0 0,0
19.01.2018 12:00:00 1,8 0,9 1,8 0,6 0,9 4,9 13 7 20 11 ZW 1004,0 5 0 0,0
19.01.2018 11:00:00 1,6 0,7 1,4 0,3 0,9 5,0 12 6 19 10 ZW 1003,6 6 0 0,0
19.01.2018 10:00:00 1,1 0,4 0,8 0,2 0,9 5,0 12 6 21 11 WZW 1002,9 4,5 1 0,0
19.01.2018 09:00:00 0,9 0,3 0,2 0,2 0,9 5,0 14 8 25 13 WZW 1002,0 4,5 0 0,0
19.01.2018 08:00:00 0,8 0,2 0,2 0,2 0,9 5,0 13 7 18 10 ZW 1001,4 4,8 0 0,0
19.01.2018 07:00:00 0,9 -0,1 0,3 0,1 0,9 5,0 10 5 16 8 WZW 1000,8 9 0 0,0
19.01.2018 06:00:00 1,3 0,1 0,4 0,1 0,9 5,0 14 8 19 10 WZW 1000,4 13 0 0,0
19.01.2018 05:00:00 1,3 0,7 0,6 0,1 0,9 5,0 8 5 16 9 W 999,8 10 0 0,0
19.01.2018 04:00:00 0,9 0,5 0,1 0,1 0,9 5,0 8 4 16 8 W 999,0 9 0 0,0
19.01.2018 03:00:00 0,6 0,0 -0,4 0,1 0,9 5,0 12 6 23 12 W 998,8 5 0 0,0
19.01.2018 02:00:00 1,7 1,2 1,2 0,1 0,9 5,0 9 5 18 10 WNW 998,1 4,3 0 0,0
19.01.2018 01:00:00 1,7 1,1 1,2 0,1 0,8 5,0 11 6 16 9 W 997,5 4,5 0 0,0
19.01.2018 00:00:00 1,5 0,9 0,8 0,1 0,8 5,0 11 6 22 12 WNW 996,8 5 0 0,0
18.01.2018 23:00:00 2,1 1,0 1,4 0,0 0,8 5,0 15 8 25 14 NW 995,8 11 0 0,5
18.01.2018 22:00:00 1,7 1,2 1,3 0,0 0,8 5,0 12 7 24 13 NW 994,7 4,6 0 0,1
18.01.2018 21:00:00 1,3 0,7 0,9 0,0 0,8 5,0 12 6 30 16 NNW 993,5 9 0 0,9
18.01.2018 20:00:00 1,0 0,3 0,3 0,0 0,8 5,0 18 10 32 17 N 991,8 4,8 0 0,7
18.01.2018 19:00:00 1,8 0,3 0,9 0,0 0,8 5,0 17 9 37 20 N 989,4 22 0 0,1
18.01.2018 18:00:00 1,0 0,3 0,1 0,0 0,8 5,0 23 12 40 22 NNO 986,8 6 0 0,1
18.01.2018 17:00:00 0,5 0,1 0,0 0,0 0,8 5,0 23 12 42 23 NO 984,8 7 0 0,1
18.01.2018 16:00:00 0,4 0,0 0,0 0,0 0,8 5,0 29 16 50 27 ONO 982,8 1,9 0 0,4
18.01.2018 15:00:00 0,2 -0,1 0,0 0,0 0,8 5,0 34 19 48 26 ONO 982,6 1,0 0 0,5
18.01.2018 14:00:00 0,4 0,0 0,0 0,0 0,8 5,0 32 17 45 24 O 983,4 1,2 0 0,6
18.01.2018 13:00:00 0,6 0,0 0,1 0,0 0,8 5,0 27 14 36 19 O 985,4 1,3 0 0,6
18.01.2018 12:00:00 1,7 0,1 1,3 0,0 0,8 5,0 17 9 29 16 ZO 987,7 6 0 0,0
18.01.2018 11:00:00 1,9 0,3 1,7 0,0 0,8 5,0 19 10 30 16 ZZO 989,6 8 0 0,0
18.01.2018 10:00:00 1,8 0,2 1,4 0,0 0,8 5,0 19 10 29 16 ZZO 991,6 10 0 0,0
18.01.2018 09:00:00 1,9 0,2 1,1 0,0 0,8 5,0 16 9 26 14 Z 992,9 11 0 0,0
18.01.2018 08:00:00 1,9 0,2 1,0 0,0 0,8 5,1 14 7 23 12 ZZW 994,4 12 0 0,0
18.01.2018 07:00:00 2,1 0,3 1,4 0,0 0,8 5,1 18 10 30 16 ZW 995,8 15 0 0,0
18.01.2018 06:00:00 2,1 0,3 1,3 0,0 0,8 5,1 16 9 35 19 ZW 996,4 21 0 0,0
18.01.2018 05:00:00 2,2 0,4 1,5 0,0 0,8 5,1 20 11 42 23 WZW 996,8 25 0 0,0
18.01.2018 04:00:00 2,3 0,5 1,3 0,0 0,8 5,1 26 14 40 22 WZW 997,2 23 0 0,0
18.01.2018 03:00:00 2,0 0,7 1,4 0,0 0,8 5,1 21 12 41 22 WZW 997,5 18 0 0,2
18.01.2018 02:00:00 1,8 0,5 1,1 0,0 0,8 5,1 22 12 34 18 ZW 997,6 15 0 0,0
18.01.2018 01:00:00 1,6 0,3 1,0 0,0 0,8 5,1 19 11 34 19 ZW 997,6 23 0 0,1
18.01.2018 00:00:00 1,8 0,2 1,0 0,0 0,8 5,1 17 9 26 14 WZW 997,4 18 0 0,0
17.01.2018 23:00:00 1,8 0,5 1,0 0,0 0,8 5,1 17 9 36 20 WZW 997,1 14 0 0,0
17.01.2018 22:00:00 2,3 0,9 1,4 0,0 0,8 5,1 23 12 37 20 WZW 996,5 16 0 0,0
17.01.2018 21:00:00 2,1 0,8 1,3 0,0 0,8 5,1 19 10 39 21 W 996,1 24 0 0,2
17.01.2018 20:00:00 1,6 0,0 0,7 0,0 0,8 5,1 21 11 44 24 W 995,4 26 0 0,0
17.01.2018 19:00:00 1,6 0,5 0,8 0,0 0,8 5,1 19 10 35 19 W 994,7 32 0 0,3
17.01.2018 18:00:00 1,4 0,3 0,5 0,0 0,8 5,1 23 13 46 25 W 993,9 35 0 2,2
17.01.2018 17:00:00 2,5 0,7 1,5 0,0 0,8 5,1 25 13 36 19 WZW 993,2 33 0 0,0
17.01.2018 16:00:00 2,3 1,0 1,7 0,0 0,8 5,1 17 9 28 15 W 992,3 19 0 0,2
17.01.2018 15:00:00 1,8 0,7 1,4 0,0 0,8 5,1 22 12 37 20 W 991,7 7 0 0,2
17.01.2018 14:00:00 1,2 0,5 1,2 0,0 0,8 5,1 14 8 31 17 WZW 991,2 3,9 0 0,3
17.01.2018 13:00:00 2,1 0,5 1,7 0,0 0,8 5,1 18 10 27 15 WZW 990,8 6 0 0,0
17.01.2018 12:00:00 2,0 0,9 1,8 0,0 0,8 5,1 15 8 23 13 WZW 990,2 4,7 2 0,2
17.01.2018 11:00:00 1,7 0,5 1,3 0,0 0,8 5,1 16 9 24 13 ZW 989,9 5 0 0,1
17.01.2018 10:00:00 1,5 0,1 1,0 0,0 0,8 5,1 14 8 28 15 ZW 989,2 7 0 0,1
17.01.2018 09:00:00 1,8 -0,5 1,3 0,0 0,8 5,2 17 9 27 14 ZW 988,7 14 0 0,0
17.01.2018 08:00:00 1,9 -0,3 1,3 0,0 0,8 5,2 15 8 24 13 ZW 988,0 15 0 0,0
17.01.2018 07:00:00 1,8 -0,4 1,3 0,0 0,8 5,2 15 8 23 12 ZW 987,6 15 0 0,0
17.01.2018 06:00:00 2,0 -0,3 1,5 0,0 0,8 5,2 16 9 27 14 ZW 987,4 15 0 0,0
17.01.2018 05:00:00 1,8 -0,4 1,3 0,0 0,8 5,2 16 8 29 16 ZW 987,2 15 0 0,0
17.01.2018 04:00:00 1,8 -0,5 1,0 0,0 0,8 5,2 17 9 27 15 ZW 987,5 22 0 0,0
17.01.2018 03:00:00 1,8 -0,3 1,0 0,0 0,8 5,2 18 10 31 17 ZW 987,6 16 0 0,0
17.01.2018 02:00:00 1,9 0,0 1,1 0,0 0,8 5,2 17 9 30 16 WZW 987,5 23 0 0,0
17.01.2018 01:00:00 1,3 -0,2 0,1 0,0 0,8 5,2 19 11 33 18 WZW 987,4 16 0 0,0
17.01.2018 00:00:00 1,8 0,2 1,1 0,0 0,8 5,2 21 12 31 17 WZW 987,5 25 0 0,0
16.01.2018 23:00:00 2,0 0,2 0,9 0,0 0,8 5,2 23 12 34 19 WZW 987,3 23 0 0,0
16.01.2018 22:00:00 2,2 0,6 1,3 0,0 0,8 5,2 23 12 36 19 WZW 987,2 39 0 0,0
16.01.2018 21:00:00 2,1 0,9 1,2 0,0 0,8 5,2 21 11 32 17 WZW 986,8 23 0 0,0
16.01.2018 20:00:00 2,4 0,9 1,7 0,0 0,8 5,2 19 11 32 18 WZW 986,8 21 0 0,0
16.01.2018 19:00:00 2,7 1,2 1,9 0,0 0,8 5,2 19 10 27 15 WZW 986,4 10 0 0,0
16.01.2018 18:00:00 2,5 1,0 1,5 0,0 0,8 5,2 11 6 19 10 ZZW 986,2 21 0 0,0
16.01.2018 17:00:00 2,7 1,3 1,6 0,0 0,8 5,2 10 5 16 8 ZZW 986,2 19 0 0,0

tt = temperatuur
td = dauwpunt
tt 5cm = temperatuur 5cm
tt -5cm = temperatuur -5cm
tt -20cm = temperatuur -20cm
tt -100cm = temperatuur -100cm
ff = windsnelheid
fx = windstoten
dd = windrichting
ppp = luchtdruk
vv = zicht
sd = Zonneschijnduur
rr = neerslag

Weerstations in de omgeving